GFSNE_500_spd_105.txt.gz
Wind_Speed
27 37 32 18 21 19 23 31 31 30 34 35 34 31 29 29 27 27 27 35 36 35 34 36 36 36 38 38 39 41 42 42 40 42 41 43 43 44
25 23 24 29 25 23 22 28 34 34 34 33 28 24 26 28 29 31 32 36 37 37 38 40 40 40 41 42 44 43 42 42 43 44 44 46 49 50
30 31 28 23 25 27 30 33 31 31 31 31 28 24 27 31 33 36 38 39 40 41 44 42 41 42 44 45 43 45 45 45 46 48 51 53 52 53
37 30 23 24 30 31 30 25 25 27 30 30 29 27 29 37 37 41 43 44 44 45 47 45 44 45 46 46 47 47 48 48 49 51 56 58 59 62
31 20 20 23 23 22 19 19 23 28 30 33 32 33 38 38 41 44 46 48 49 49 49 48 47 49 49 48 49 50 54 53 54 55 60 66 66 69
9 11 12 14 18 19 18 19 25 29 31 36 38 37 38 41 42 46 49 51 53 53 53 52 52 54 53 52 54 56 60 58 62 63 65 66 69 70
14 16 17 20 22 23 24 26 29 33 36 40 43 43 45 46 46 47 51 55 56 58 58 58 58 56 54 60 62 59 61 66 67 68 74 76 76 75
17 18 20 21 22 23 25 27 31 35 38 41 43 45 46 48 49 50 50 53 60 60 61 60 59 57 63 65 67 67 68 69 72 76 81 81 79 81
20 22 24 26 26 28 29 31 34 36 39 41 43 47 49 50 51 53 54 58 59 59 59 60 59 59 61 64 68 73 74 73 76 81 82 83 88 91
22 24 26 29 32 34 37 38 39 41 45 46 48 50 51 52 52 53 55 58 59 59 60 60 61 63 67 70 73 75 77 79 82 85 88 90 94 90
29 31 31 32 32 36 37 37 39 41 42 43 45 48 50 51 52 54 56 57 58 61 62 62 64 65 73 77 83 85 85 88 91 91 87 80 76 76
36 40 41 41 41 43 43 43 45 45 45 45 47 48 50 51 53 55 57 58 65 65 65 70 72 77 81 83 84 88 89 84 82 77 71 74 81 87
42 46 51 52 50 50 52 54 52 53 53 52 52 53 61 58 60 62 65 64 66 69 75 75 79 86 91 89 85 77 69 67 68 74 81 82 81 83
44 43 46 44 45 53 61 66 67 61 62 61 63 61 63 63 72 74 77 74 76 79 76 79 82 81 75 68 63 63 67 74 78 76 76 78 82 85
47 49 51 52 51 52 49 63 66 67 69 77 71 68 73 85 82 83 82 81 85 82 76 71 65 62 60 64 69 74 72 70 72 75 77 83 86 90
50 52 52 52 49 45 51 51 59 52 68 74 69 75 77 78 74 74 77 74 63 58 54 54 59 66 72 70 68 67 69 72 76 79 82 90 93 99
56 49 51 60 56 54 52 55 58 60 63 64 57 53 56 60 62 57 52 50 52 55 58 62 65 67 67 67 68 72 75 78 83 85 88 95 98 101
48 50 52 52 52 52 51 49 49 52 52 55 55 52 50 49 50 51 54 55 57 58 60 61 63 66 69 72 74 74 78 81 86 90 93 94 97 95
45 48 49 51 52 52 52 48 47 49 49 48 50 51 52 52 53 55 55 57 58 59 61 64 67 69 71 73 78 77 80 86 89 90 92 92 85 79
44 46 47 48 47 47 48 46 47 50 51 51 53 55 56 58 58 58 58 57 59 62 65 68 70 71 74 76 80 84 84 87 88 86 81 76 70 61
45 48 50 51 52 51 50 50 51 52 53 56 57 59 60 59 59 59 59 62 65 67 70 72 74 75 76 79 81 84 85 83 79 71 66 61 48 35
50 52 52 53 54 54 54 56 57 57 56 56 57 58 59 61 61 63 65 67 69 70 71 74 75 76 77 78 80 79 76 69 64 63 57 44 28 19
50 50 51 52 54 55 54 55 57 55 57 60 61 62 63 64 66 68 69 69 70 71 73 73 75 77 77 74 71 63 60 60 58 50 38 22 17 9

GFSNE_500_spd_111.txt.gz
Wind_Speed
23 15 20 17 18 19 15 20 23 21 26 28 30 33 33 33 31 31 34 36 37 33 31 28 27 25 26 28 31 33 32 32 36 38 39 41 42 43
22 18 12 18 17 22 18 19 23 24 25 28 36 36 35 34 34 37 36 36 33 30 27 24 25 27 29 32 35 37 37 38 38 40 44 44 45 46
25 19 19 20 19 23 26 26 22 24 22 24 26 32 35 38 36 36 31 31 26 25 23 24 27 31 34 36 38 40 41 42 42 45 47 49 50 51
34 30 30 25 21 23 23 28 24 26 27 27 29 29 38 41 40 39 37 31 26 26 27 27 30 32 36 38 41 44 46 47 48 51 52 54 56 57
24 23 29 26 27 29 33 29 30 27 31 31 31 34 36 39 40 40 37 34 31 32 30 32 37 37 40 41 44 47 49 51 53 55 55 57 61 64
24 28 26 30 28 34 35 36 32 32 33 34 31 33 34 36 36 36 35 35 36 37 41 39 44 47 49 51 52 51 56 54 56 62 60 62 68 70
17 27 28 30 28 28 27 31 29 31 31 29 27 28 29 29 29 33 36 37 38 40 44 45 48 49 53 56 54 57 62 62 66 67 70 73 72 71
11 11 12 14 15 18 18 20 22 23 25 27 29 28 29 31 32 35 37 41 44 47 50 50 51 56 63 64 62 63 68 69 69 72 74 74 72 71
16 16 16 17 19 20 22 25 26 28 28 28 29 29 30 32 33 37 40 45 48 51 55 57 60 61 66 70 69 71 71 70 70 71 71 71 70 75
14 13 15 17 20 24 27 27 27 28 27 27 29 31 33 36 39 42 45 48 51 54 57 60 62 64 66 68 69 68 66 66 70 73 77 81 83 84
19 18 20 22 23 25 26 26 26 27 27 30 32 34 35 38 40 43 46 49 52 55 57 60 62 64 65 66 67 70 72 76 82 82 83 88 90 95
26 25 26 26 26 27 27 29 30 31 32 30 32 34 37 38 42 45 48 56 61 63 65 67 69 72 75 74 74 77 80 81 86 89 90 91 91 80
28 28 28 30 28 27 30 32 33 34 34 39 39 37 40 44 49 53 55 59 63 68 73 77 78 80 82 82 83 85 82 79 78 76 73 68 68 66
32 24 23 23 36 34 34 36 38 40 39 41 45 51 49 48 52 55 57 55 59 63 61 61 65 66 66 68 70 68 65 63 64 62 63 66 70 72
37 37 39 43 43 37 41 48 45 44 54 47 52 55 57 61 61 66 65 62 58 61 64 65 63 62 63 63 64 61 60 61 63 66 67 69 71 70
42 42 43 44 46 46 50 50 52 56 54 56 60 63 63 67 63 66 64 62 60 61 61 60 61 60 60 60 59 60 62 63 65 67 68 69 72 74
44 47 49 49 47 51 50 51 55 57 59 59 60 61 58 56 57 59 60 60 59 59 59 59 58 58 60 61 63 65 65 65 65 67 70 73 75 76
40 41 43 45 47 49 49 50 52 54 54 53 54 55 56 57 56 57 58 59 59 60 59 61 61 61 62 63 64 66 68 68 69 71 73 73 73 74
41 42 45 47 48 50 51 54 56 56 56 56 55 55 56 58 60 62 63 63 63 63 63 63 64 64 64 64 65 66 66 67 67 67 69 70 72 73
44 46 49 51 52 53 54 53 53 55 57 58 60 61 61 62 62 62 63 63 62 62 61 61 61 62 63 63 64 65 65 66 67 70 71 72 72 71
44 46 48 49 51 53 55 57 58 59 61 62 62 63 63 62 63 63 62 61 61 61 62 62 63 64 64 64 64 65 67 68 69 70 71 70 64 60
47 49 50 52 53 54 56 58 58 59 58 59 59 59 60 61 61 62 64 64 65 64 63 63 63 64 65 65 67 69 68 69 69 68 64 58 53 51
47 49 51 53 53 54 55 56 56 56 56 56 56 58 58 59 60 61 62 61 61 61 62 63 64 66 68 68 68 69 69 66 62 56 51 49 48 47

GFSNE_500_spd_114.txt.gz
Wind_Speed
20 19 17 27 30 28 25 28 24 25 26 30 28 26 28 32 32 36 40 35 30 33 34 36 37 35 34 31 28 28 28 30 32 33 34 36 37 36
25 22 21 22 20 17 16 19 20 23 24 25 26 26 27 28 30 31 33 30 34 36 37 35 34 32 30 27 27 29 32 36 36 37 37 38 39 38
27 24 22 18 16 14 14 19 20 22 25 26 24 25 29 31 30 34 36 36 37 37 36 31 28 24 23 25 29 32 35 36 36 39 40 43 44 43
29 29 31 28 21 17 17 17 25 27 25 25 24 25 24 27 33 34 35 36 39 39 38 30 26 28 28 30 33 34 35 38 38 40 42 44 47 49
30 33 35 33 31 26 18 17 26 29 32 26 31 28 27 28 29 34 37 40 40 39 38 35 34 33 33 34 37 37 41 45 47 47 48 51 55 56
26 28 29 30 30 25 24 24 29 31 30 30 33 34 30 30 32 33 36 38 39 37 33 34 38 40 41 43 43 48 49 49 49 53 58 59 61 60
14 19 27 29 25 26 30 32 32 32 32 33 32 28 33 30 24 27 29 31 33 34 36 38 41 43 45 47 47 48 51 53 55 60 63 67 70 71
13 9 8 24 26 21 20 16 16 12 13 17 19 21 25 27 30 32 32 33 35 37 37 39 41 44 47 50 52 55 57 61 64 68 73 75 76 75
17 14 12 13 14 16 16 17 19 21 20 22 24 26 27 30 32 32 34 35 37 40 42 44 47 49 52 55 58 61 66 69 70 72 74 75 75 74
17 18 18 18 19 19 19 19 21 20 22 25 27 28 28 31 32 34 35 37 39 40 43 46 49 52 56 59 61 63 65 68 70 73 76 77 79 80
21 20 19 19 19 19 19 19 20 22 23 25 28 29 30 32 35 37 39 41 41 40 43 46 49 53 57 62 65 68 72 75 80 86 87 85 88 88
27 27 25 24 25 25 25 26 26 27 29 30 32 34 36 36 36 39 39 39 41 45 51 55 60 62 67 69 71 76 73 64 67 70 71 73 70 66
30 29 29 30 30 29 30 31 30 30 32 33 36 37 39 41 41 40 41 43 46 49 54 62 63 64 62 65 67 66 70 70 69 69 67 65 64 63
33 32 30 30 29 31 31 33 33 34 37 36 39 39 38 41 46 45 50 51 52 57 60 60 66 65 66 66 65 69 69 67 65 64 64 64 64 66
31 30 32 33 34 35 35 34 34 42 43 40 38 44 52 50 50 53 56 61 64 64 65 63 63 64 66 65 65 66 65 66 65 65 65 66 67 68
32 29 31 32 33 40 40 40 46 50 49 51 55 57 57 60 64 63 59 59 60 61 61 61 63 64 64 64 64 64 66 66 66 67 68 68 69 70
37 39 41 44 45 46 45 46 50 49 48 52 53 52 53 56 57 58 59 60 60 60 60 59 61 62 63 65 65 65 66 67 68 67 66 67 68 69
39 42 45 46 47 45 43 43 44 45 46 48 49 50 51 52 53 53 55 58 59 61 62 63 64 65 66 66 66 66 65 66 65 65 67 68 68 67
40 40 41 42 42 43 45 46 46 47 49 49 49 50 51 54 56 58 61 63 63 63 64 64 64 65 65 63 65 65 66 67 66 66 67 67 68 70
38 40 41 43 45 46 47 46 47 48 50 51 53 56 58 60 61 63 65 64 65 65 64 64 64 64 64 65 65 66 66 66 65 67 68 70 70 70
40 40 40 41 42 44 46 48 49 51 52 54 57 58 59 60 61 63 63 64 63 62 63 64 63 63 63 62 62 64 65 67 67 67 69 70 69 68
39 41 42 44 46 46 48 50 52 54 55 56 57 58 58 59 62 62 62 63 64 63 63 62 62 63 63 63 64 65 66 68 69 69 68 67 64 59
42 44 45 46 49 49 50 52 53 54 56 57 58 59 61 62 64 65 66 66 65 64 63 63 63 64 64 65 67 69 69 69 68 67 64 59 55 49

GFSNE_500_spd_120.txt.gz
Wind_Speed
28 27 24 24 20 18 22 29 32 33 34 32 34 35 33 32 34 39 40 43 38 33 34 34 29 29 34 34 33 37 35 37 40 39 36 36 36 32
27 27 25 24 20 19 20 24 26 33 31 32 36 34 30 34 37 38 39 38 35 33 33 33 32 32 32 30 31 35 33 35 37 36 33 31 30 30
26 27 24 25 27 24 26 26 26 32 29 29 35 34 31 30 31 34 35 35 34 33 32 32 33 36 34 30 33 33 33 31 32 29 29 29 33 36
27 27 26 26 27 29 28 29 15 27 33 32 33 32 26 29 33 34 33 33 34 34 33 33 32 33 31 31 32 33 35 32 33 33 34 35 39 41
27 26 27 28 28 28 30 28 23 24 24 32 32 29 26 26 25 27 28 28 28 27 25 26 25 27 33 36 37 37 38 37 38 40 41 43 46 49
26 24 25 24 21 27 30 28 26 29 26 21 26 29 29 27 25 26 25 21 22 25 24 26 29 33 36 37 38 40 41 39 40 44 47 50 51 52
26 25 24 22 21 21 28 29 31 28 30 28 23 24 27 29 27 28 26 24 25 27 28 32 35 35 36 38 38 39 40 41 45 48 49 51 53 56
27 25 25 21 21 19 28 30 32 33 32 32 34 29 31 29 29 28 29 29 32 31 33 32 34 37 39 40 41 42 42 45 47 48 50 53 55 55
28 25 27 23 22 21 17 25 36 33 35 37 39 29 23 22 29 33 32 32 33 34 35 36 36 38 40 42 44 44 45 46 48 50 50 52 55 59
28 25 25 23 23 22 20 17 18 27 24 24 25 23 19 21 23 26 31 34 36 35 35 37 38 39 41 43 45 46 48 50 51 53 56 58 63 65
29 27 24 23 24 24 22 21 20 19 19 19 21 23 27 30 31 32 34 36 37 36 36 38 40 44 46 49 50 50 51 53 56 60 64 67 68 72
32 30 25 24 24 23 22 22 24 25 26 27 28 30 31 31 32 34 35 37 38 40 42 45 48 51 54 55 54 55 57 58 62 65 68 71 71 71
35 34 32 29 29 29 27 27 27 28 28 29 31 32 33 34 36 38 40 42 43 45 47 50 51 52 52 52 55 59 62 63 67 68 68 68 69 69
38 38 37 36 35 35 33 33 33 34 36 36 37 38 40 42 43 43 43 43 46 48 50 55 56 56 57 58 61 64 66 66 65 65 66 67 68 70
41 41 41 40 39 38 37 37 40 41 42 43 40 40 41 41 43 43 44 46 50 51 52 54 59 61 60 58 59 60 60 61 62 65 66 67 68 68
43 41 42 41 40 38 42 43 46 46 45 42 42 45 46 45 44 46 49 53 54 55 56 55 55 55 56 56 57 58 60 61 63 65 65 64 65 67
46 43 45 44 41 43 48 50 49 41 37 41 42 42 44 46 49 51 51 53 55 55 53 53 54 55 56 58 59 60 61 61 62 63 64 65 67 68
30 36 47 44 42 33 36 34 41 41 44 48 48 49 53 51 49 47 48 51 51 52 53 53 55 57 58 60 61 62 62 63 64 66 67 69 70 70
45 44 44 42 37 35 40 47 50 46 44 43 43 43 44 44 46 47 48 48 50 52 54 56 58 59 61 62 64 64 65 67 68 69 70 71 71 70
56 48 40 38 42 46 44 46 44 43 42 41 42 42 44 45 46 47 49 52 54 56 59 60 60 62 63 65 66 68 69 71 72 71 71 71 69 71
42 43 39 39 40 39 38 38 39 40 40 38 39 42 44 46 49 51 54 57 59 60 61 62 64 65 67 68 68 70 71 71 71 73 73 72 72 72
31 34 35 35 37 38 36 33 33 35 39 42 43 46 48 50 53 56 58 59 61 63 64 66 67 69 70 71 70 71 72 73 73 75 74 74 74 75
24 25 26 27 29 31 34 36 38 41 44 47 48 51 54 56 57 59 61 63 64 66 67 68 70 70 70 71 73 74 74 74 75 75 76 75 76 76

GFSNE_500_spd_123.txt.gz
Wind_Speed
32 29 26 26 26 27 26 21 23 27 29 25 25 33 34 34 33 38 38 38 39 41 41 41 34 33 35 35 29 29 31 34 32 31 32 35 37 38
34 31 27 26 26 25 24 22 23 23 27 27 34 40 36 36 39 41 42 40 40 41 40 39 39 38 35 34 30 31 32 31 29 29 32 34 34 33
35 32 29 27 26 25 25 27 26 29 26 32 35 28 32 38 41 37 39 42 42 39 35 33 34 33 31 30 34 35 33 31 30 32 33 33 31 32
36 33 30 28 27 27 27 28 32 30 32 27 34 35 38 34 37 37 41 41 40 37 34 35 35 34 33 36 33 27 29 30 31 34 37 36 36 36
37 34 32 29 28 29 27 29 32 31 28 23 23 40 41 35 31 37 35 35 35 33 35 30 30 29 30 27 26 29 31 33 37 41 43 42 40 41
38 35 34 29 29 28 29 25 31 30 28 27 25 20 26 38 35 35 32 30 30 30 29 29 25 25 26 29 30 30 34 37 39 40 41 41 43 45
40 36 34 29 31 28 26 22 26 29 30 29 29 25 22 30 36 33 31 29 28 26 25 25 25 27 29 32 32 33 35 37 39 41 43 45 47 50
41 37 34 30 31 29 27 25 23 25 28 33 30 27 28 22 31 30 32 27 28 26 24 26 30 31 32 31 34 38 39 41 42 43 45 46 49 51
42 39 34 31 33 33 31 25 21 23 27 34 34 30 30 24 24 29 28 29 29 29 30 32 32 33 33 37 38 39 40 42 42 44 46 50 52 54
43 41 35 32 33 33 33 24 23 26 22 29 33 36 34 35 28 25 25 27 32 35 36 34 34 36 37 39 40 40 41 43 46 50 53 55 56 58
44 39 36 33 32 33 33 26 25 26 21 16 19 24 25 24 21 24 23 24 27 30 34 38 39 40 40 41 42 43 46 50 53 55 57 59 61 64
43 40 36 35 33 32 29 24 22 23 24 22 21 21 21 23 25 27 31 32 34 36 38 40 41 42 44 45 47 49 52 55 57 59 61 64 66 67
43 39 36 37 36 33 31 27 24 23 22 22 24 25 27 29 30 32 33 34 36 38 40 43 44 45 48 50 52 54 57 60 61 64 67 66 66 65
42 40 38 39 39 37 35 32 31 28 28 29 29 30 31 32 34 36 36 38 40 42 45 46 46 49 52 54 57 60 61 63 64 64 64 63 63 65
40 42 41 38 42 40 39 37 36 33 34 34 34 33 39 41 43 44 45 45 45 46 49 50 51 53 55 59 61 62 64 62 61 61 62 64 66 67
42 40 44 43 42 40 39 37 35 36 37 38 39 39 41 44 47 49 47 47 46 46 49 52 54 57 61 64 62 60 59 59 60 63 65 66 67 67
45 48 46 42 46 45 46 36 35 36 37 43 50 52 51 44 41 43 43 45 45 47 52 55 55 54 54 56 58 58 58 61 63 65 65 66 67 69
55 41 44 47 52 47 44 37 33 35 33 38 36 35 36 41 43 45 45 47 52 56 53 49 50 53 54 56 58 60 61 63 65 66 67 69 71 71
52 39 34 35 36 44 40 40 38 44 44 40 39 43 42 38 41 47 52 53 51 49 48 48 50 54 56 58 60 62 64 66 68 70 71 71 72 73
41 34 45 39 37 42 42 45 43 47 51 46 49 46 47 47 50 50 47 46 46 47 49 52 55 57 59 61 63 65 68 69 71 72 72 73 74 74
42 44 52 50 52 49 43 44 46 47 47 46 48 45 42 43 43 42 43 44 48 51 53 56 59 61 63 65 67 70 71 72 73 74 75 75 76 78
45 49 50 44 47 47 45 44 45 48 45 45 43 38 35 37 41 44 46 49 52 55 58 60 62 64 66 69 71 72 73 74 75 75 75 77 78 79
42 45 44 41 42 42 42 42 41 38 38 36 36 37 39 42 46 49 52 54 57 59 61 63 65 67 69 71 72 74 75 76 77 79 81 79 78 79

GFSNE_500_spd_126.txt.gz
Wind_Speed
38 36 36 35 31 32 30 28 31 27 23 24 27 24 24 23 35 35 29 31 32 31 33 34 38 43 46 47 38 35 33 32 26 29 30 34 29 26
39 36 36 38 32 32 29 29 29 27 22 24 26 27 29 26 31 33 35 41 37 38 38 40 41 44 43 39 42 34 30 32 31 33 33 29 27 28
39 37 36 40 35 32 31 30 30 29 28 26 27 27 27 35 34 37 35 37 39 41 41 42 43 41 41 37 39 29 28 32 34 33 31 30 29 32
40 39 37 40 38 32 32 30 32 32 31 30 31 32 33 32 28 32 33 37 41 43 41 40 42 42 37 31 30 29 32 35 31 28 30 31 35 37
41 41 39 39 39 34 34 31 34 33 31 34 34 28 25 24 35 36 36 32 38 41 39 38 35 34 33 31 32 33 32 29 27 29 32 36 39 39
43 43 41 39 40 37 34 33 34 31 31 32 34 33 31 25 25 32 36 35 36 37 36 33 34 32 31 29 30 28 27 29 31 32 33 36 36 38
45 43 42 40 41 39 36 33 33 32 29 29 32 32 31 29 26 25 32 37 37 36 33 31 28 30 28 26 27 28 30 32 33 35 37 38 39 40
45 43 42 41 40 39 38 34 34 32 31 31 32 30 28 31 32 30 30 34 35 34 31 26 26 29 29 29 30 31 32 33 34 38 40 40 42 42
44 42 44 42 41 40 39 37 33 33 29 32 35 32 28 30 36 32 27 30 31 32 29 29 31 31 30 31 31 32 34 34 37 40 40 42 43 46
45 44 45 43 42 41 41 39 35 34 31 36 26 28 30 34 31 24 26 29 30 28 30 32 33 32 34 35 34 33 36 38 40 40 42 44 46 48
47 46 45 43 42 42 41 40 36 33 31 33 31 24 28 31 38 33 32 32 30 26 26 30 34 37 37 36 37 38 38 39 43 45 46 46 48 53
43 44 45 44 45 42 42 39 36 31 33 35 31 26 23 20 23 25 24 25 29 28 25 27 30 34 37 37 38 40 43 45 45 46 50 52 56 59
42 46 47 46 46 42 42 39 37 32 32 29 27 25 22 25 23 23 24 26 28 30 32 34 35 36 38 40 43 45 45 46 50 52 54 58 60 62
49 53 46 42 42 41 42 40 39 34 33 32 29 28 25 25 26 27 28 30 31 33 34 36 38 40 42 44 45 46 48 50 53 57 60 64 63 61
52 44 38 42 42 42 42 41 42 39 38 37 34 33 32 31 30 29 30 34 36 38 40 40 42 46 47 46 46 46 49 55 60 61 60 60 61 62
51 46 41 46 46 42 46 36 40 42 41 40 39 38 37 36 37 38 35 35 38 39 40 39 39 40 42 43 47 52 57 58 59 59 59 60 63 66
45 45 47 48 45 43 43 44 39 40 41 46 45 40 40 36 38 42 46 46 41 38 38 40 42 43 45 50 53 57 58 57 57 58 60 63 65 68
37 42 48 49 46 45 47 48 43 43 47 50 49 39 41 42 39 39 34 33 37 41 44 45 45 50 53 57 58 57 55 54 57 60 63 65 67 70
39 39 49 51 49 47 57 51 44 41 34 36 35 35 37 39 39 43 44 44 45 46 46 51 54 55 56 54 52 52 54 57 60 63 65 68 71 72
48 40 40 46 46 48 47 41 43 36 34 41 47 39 41 47 43 43 45 45 45 48 53 57 55 49 47 49 52 54 58 61 63 66 68 71 72 74
45 43 40 41 40 41 42 43 46 45 45 50 51 50 47 50 50 50 50 53 56 59 58 51 46 47 50 53 56 59 62 65 67 69 70 72 73 75
40 43 47 45 45 47 51 54 55 56 55 57 52 52 55 54 56 53 52 53 50 46 44 46 49 52 55 58 61 63 65 67 68 69 70 71 73 74
41 44 49 48 48 49 51 53 52 54 55 56 53 53 53 56 55 55 49 43 42 43 47 51 54 58 60 61 63 63 65 67 69 71 72 74 75 77

GFSNE_500_spd_132.txt.gz
Wind_Speed
38 29 32 33 33 31 31 33 34 31 27 26 30 31 27 27 25 24 25 30 29 29 39 31 30 29 32 28 35 40 42 43 45 46 48 47 41 33
35 35 36 33 34 34 35 36 34 33 28 28 30 30 30 28 24 26 28 32 31 32 34 32 37 32 30 28 32 39 42 41 42 42 47 52 46 35
43 44 41 37 37 37 39 39 35 34 32 30 28 31 30 32 29 27 30 32 32 35 36 38 32 32 34 34 36 38 38 40 42 39 40 41 44 42
45 46 44 44 44 41 40 41 39 36 36 33 31 31 31 32 33 31 30 33 33 35 35 32 34 34 34 34 36 38 40 41 40 38 38 35 34 39
47 48 48 49 46 46 44 45 42 40 38 36 33 32 32 33 33 33 31 34 33 30 33 31 32 33 33 34 37 40 41 38 39 38 36 35 33 34
49 49 50 51 52 50 47 46 45 44 41 38 35 34 32 33 34 33 33 31 33 35 32 33 33 38 38 37 37 38 36 36 36 33 32 33 29 27
54 53 52 51 54 54 49 47 47 46 43 39 37 36 34 34 36 35 34 31 32 35 34 30 33 34 38 38 37 36 35 35 34 29 26 25 27 27
47 50 51 52 51 52 47 50 48 46 44 41 38 38 34 35 36 37 36 34 31 34 36 36 37 37 41 40 39 36 35 37 32 29 30 29 28 29
49 50 46 49 48 49 49 50 50 47 46 42 40 38 37 37 38 37 37 36 32 33 37 39 40 46 45 41 41 40 36 38 35 32 32 32 33 35
51 53 49 47 48 46 50 53 50 41 42 42 41 40 39 38 39 39 39 38 36 32 37 40 42 42 41 39 39 37 33 33 34 34 34 35 36 39
50 51 50 48 46 45 47 47 47 45 45 43 42 41 40 40 40 40 38 40 37 33 36 41 43 42 39 37 38 39 38 35 36 36 37 40 41 43
51 50 48 48 46 48 45 44 45 39 42 44 43 43 40 42 41 40 39 39 37 36 35 37 38 34 34 34 33 33 37 39 37 38 39 42 43 45
50 52 50 47 44 47 49 47 37 46 53 43 45 44 41 42 41 42 39 40 38 35 33 38 40 37 37 39 38 35 35 37 39 41 43 45 47 48
41 49 50 47 46 43 43 45 45 46 49 48 47 46 42 42 41 42 40 40 38 35 32 38 40 38 38 32 29 29 34 35 37 41 44 48 49 50
45 44 45 48 49 46 47 52 46 46 50 49 46 43 43 43 43 42 41 40 39 38 37 35 35 38 39 36 34 36 37 38 40 42 43 47 49 51
42 44 42 45 44 45 48 47 54 46 45 47 47 47 47 45 44 43 44 42 40 39 39 39 39 40 39 40 41 42 42 42 42 47 52 53 54 54
42 42 45 45 45 49 47 45 42 42 47 48 51 49 49 45 45 45 45 44 43 43 43 43 42 42 44 45 45 47 49 49 53 55 52 53 54 56
43 40 42 47 43 45 51 51 48 45 47 58 54 49 51 50 47 45 46 46 46 47 46 46 47 45 46 47 48 49 50 53 58 55 54 56 59 62
45 43 41 47 49 49 47 49 52 55 56 50 54 53 53 50 45 51 49 47 48 50 50 51 53 54 50 50 49 46 49 53 57 61 62 64 65 66
46 45 48 50 47 49 43 43 43 51 49 57 49 58 53 53 49 49 52 51 51 52 49 50 49 52 54 54 53 54 56 57 60 64 66 68 69 71
49 50 53 56 56 49 47 49 51 53 54 56 57 57 56 54 48 52 51 51 52 50 51 49 52 54 54 55 56 59 63 67 68 69 71 71 70 66
50 46 47 51 50 49 47 49 49 49 45 47 47 50 51 54 55 51 51 53 54 54 56 55 58 61 63 64 65 67 69 69 68 69 68 63 57 56
16 35 40 51 53 49 47 50 48 48 51 49 51 50 49 55 55 52 55 58 60 62 63 63 65 67 66 67 65 65 65 66 65 57 54 53 56 59

GFSNE_500_spd_138.txt.gz
Wind_Speed
34 35 33 36 34 29 30 31 31 34 36 36 33 30 30 30 30 31 28 26 26 25 23 24 25 27 26 26 27 26 29 33 37 34 32 35 36 40
36 39 36 36 37 31 32 29 26 34 33 32 32 30 31 32 31 34 32 28 28 28 25 26 29 30 28 27 29 31 28 28 34 32 32 35 37 40
38 37 40 38 36 33 33 31 28 31 30 32 32 32 33 34 32 36 36 31 31 31 30 28 29 31 31 30 28 29 28 30 32 34 31 30 32 37
40 41 39 39 39 32 35 35 34 36 37 34 36 39 38 39 36 37 38 36 35 35 34 32 32 31 30 31 32 30 32 29 28 29 32 30 32 36
44 46 41 38 36 35 37 39 41 42 43 42 40 43 44 43 39 37 43 41 39 39 38 35 35 34 32 30 30 29 27 29 30 30 30 30 31 35
42 46 41 41 43 42 41 40 45 49 49 48 43 42 43 47 46 42 42 43 44 42 41 37 35 36 35 30 30 32 31 30 31 31 32 32 34 36
45 39 43 46 48 44 43 43 45 49 54 51 51 47 46 46 48 46 46 44 45 44 43 42 41 37 35 32 29 31 33 33 33 32 31 31 33 37
41 40 41 44 46 46 48 51 52 50 53 52 49 49 48 50 49 48 48 48 46 46 45 45 43 38 36 34 31 31 35 36 34 31 33 38 38 38
41 44 45 45 48 49 50 51 49 47 49 49 47 48 48 49 48 51 49 49 47 47 48 48 44 41 39 35 32 32 34 38 36 33 38 39 40 40
41 42 42 43 47 50 51 52 53 53 53 55 53 51 51 50 48 50 51 50 50 50 49 47 45 43 40 40 35 34 32 37 33 36 42 41 43 42
41 38 37 37 40 43 47 49 51 52 54 58 58 57 54 52 50 50 52 52 51 50 48 46 46 45 43 42 37 35 34 33 35 36 44 42 44 45
39 39 40 37 39 41 41 42 43 44 49 52 54 55 55 54 52 51 52 55 51 54 49 49 46 45 43 42 40 37 38 36 37 38 42 41 39 40
44 44 44 42 39 41 42 44 44 46 46 48 51 52 51 55 53 52 53 56 56 54 49 49 46 45 44 42 41 38 38 38 38 38 39 37 37 38
51 48 47 44 45 44 42 40 45 44 48 45 47 51 50 50 52 56 53 56 54 54 44 41 42 45 45 43 43 40 39 38 37 35 36 37 38 39
49 48 50 52 53 54 49 47 46 47 45 47 46 47 52 53 52 57 56 59 54 54 44 53 51 48 46 44 43 40 40 38 36 34 34 38 41 39
53 54 53 53 54 55 55 50 48 50 49 47 48 47 52 53 52 54 57 56 56 53 49 47 53 49 47 45 44 41 41 39 38 38 38 41 42 40
58 58 58 58 58 57 57 55 51 50 50 49 48 48 49 49 53 61 62 57 51 45 45 44 48 49 48 46 44 41 40 42 41 43 43 46 44 45
62 61 62 63 63 63 63 61 59 59 59 52 49 52 50 52 51 53 57 47 58 43 45 50 52 50 49 45 44 43 43 43 44 47 50 47 48 48
64 65 65 65 65 66 67 67 66 62 57 54 53 52 56 52 56 62 55 51 55 52 59 58 49 51 52 48 47 44 47 47 48 50 53 52 51 50
54 56 59 63 66 69 70 69 69 66 66 63 56 56 55 53 55 57 45 49 62 62 50 58 61 63 56 50 48 47 46 49 52 53 54 53 53 55
48 48 48 50 51 54 57 62 64 61 62 62 56 59 54 57 58 59 56 61 60 53 59 59 57 54 49 58 58 54 51 52 55 56 54 60 57 59
46 46 44 41 41 41 41 47 54 54 56 61 60 60 58 57 55 63 66 60 60 56 65 56 55 56 59 58 62 56 56 57 59 57 59 62 64 64
47 45 43 40 38 36 30 29 34 43 54 59 59 53 59 57 56 55 55 59 62 56 56 58 52 56 62 62 62 58 62 63 59 61 67 67 66 67

GFSNE_500_spd_141.txt.gz
Wind_Speed
42 34 36 36 30 30 29 28 28 24 25 25 28 26 33 32 28 29 33 34 28 29 29 28 27 27 28 26 27 29 26 26 26 27 27 31 32 33
45 42 32 34 34 31 31 29 28 26 22 21 17 23 28 30 32 29 33 33 32 31 31 32 31 31 30 31 29 29 28 28 29 26 28 29 30 34
51 43 40 37 36 33 30 31 30 28 24 25 25 24 21 26 28 31 33 33 32 34 33 35 33 34 34 32 32 31 30 31 30 29 28 31 31 32
54 46 41 40 39 32 30 32 29 28 28 28 29 30 31 28 30 33 37 38 37 36 37 37 36 36 37 36 34 32 32 31 32 33 32 30 32 30
41 37 42 39 41 42 37 36 32 32 33 33 32 35 35 35 36 40 40 39 40 42 39 41 40 39 41 39 37 34 34 31 30 29 28 28 29 31
52 49 52 43 45 45 44 42 40 41 41 43 43 43 41 42 43 41 41 42 43 43 45 45 43 42 42 44 39 36 32 33 31 31 32 30 31 32
66 57 42 44 44 37 39 40 39 38 41 44 45 42 43 47 48 47 46 44 48 45 46 46 48 45 45 44 42 38 37 32 32 32 33 33 32 32
33 30 41 43 46 45 40 40 41 42 43 46 47 46 47 50 52 48 50 47 52 51 48 50 49 48 44 44 41 43 39 33 34 32 32 32 34 30
35 39 43 40 40 41 42 44 44 47 47 48 48 49 48 50 51 49 48 48 49 52 51 51 51 51 46 44 41 44 41 38 34 33 33 35 37 35
43 43 41 42 42 41 42 44 43 43 48 51 50 51 52 55 53 53 53 54 52 50 49 50 51 52 50 49 43 44 43 39 38 36 36 38 36 36
43 42 43 44 44 43 44 46 48 49 45 45 49 49 49 48 50 55 58 57 56 53 50 50 52 54 45 45 43 44 43 42 39 38 37 36 39 38
44 45 45 45 46 46 43 42 41 41 41 38 37 39 43 44 45 48 51 54 55 53 52 53 52 55 56 53 49 45 42 43 41 40 40 41 40 40
38 39 42 45 45 44 43 42 42 41 43 43 39 38 37 42 47 48 49 52 50 47 49 54 55 55 57 50 47 47 47 44 43 42 43 43 41 41
37 40 44 45 46 47 47 46 45 44 44 43 39 38 40 43 46 49 49 48 49 47 49 54 52 55 52 52 54 48 49 45 44 44 44 43 42 42
43 44 45 48 51 52 53 52 49 47 46 47 45 46 48 47 49 47 49 48 49 48 51 54 51 54 56 53 50 51 47 44 44 43 43 44 43 42
46 47 50 53 54 55 54 53 51 53 55 54 54 54 53 51 51 50 48 50 51 49 52 49 51 58 57 54 45 49 50 49 50 44 45 44 43 42
52 53 54 56 58 58 58 57 58 58 57 56 57 57 58 53 52 52 50 49 51 51 55 52 50 53 54 56 51 47 46 50 49 44 45 45 43 43
58 58 59 60 60 61 64 65 65 64 63 62 62 62 61 60 57 59 58 53 51 51 51 52 59 56 63 58 55 54 53 50 48 46 47 47 46 44
67 67 67 67 68 68 69 70 70 70 69 66 66 66 67 66 65 65 61 59 56 53 53 56 52 48 52 49 58 45 47 48 50 48 48 48 47 47
70 69 71 73 74 74 74 75 75 75 74 76 76 75 73 73 72 69 68 63 62 58 57 58 55 61 58 56 60 60 57 51 52 54 52 49 50 50
62 63 63 63 63 66 68 69 71 75 78 78 78 80 80 82 82 79 76 73 70 63 57 58 58 64 59 55 55 60 65 64 61 59 57 56 48 49
54 54 54 53 52 51 50 50 50 52 55 58 64 71 76 77 81 80 78 77 69 65 60 61 61 60 64 58 60 59 59 63 62 61 61 57 56 55
57 56 54 53 51 51 50 50 49 48 47 48 48 52 56 58 58 61 65 67 67 65 68 66 60 61 63 60 64 62 62 61 59 63 62 54 60 61

GFSNE_500_spd_144.txt.gz
Wind_Speed
50 48 41 37 37 35 37 34 31 27 26 27 24 22 21 22 23 25 30 33 33 31 30 30 29 30 27 28 27 27 26 27 28 28 28 29 33 30
55 52 47 39 38 38 43 37 34 28 25 27 27 26 18 20 25 25 27 32 32 32 34 33 31 30 32 32 30 31 28 28 29 29 31 30 32 34
54 58 51 44 43 41 39 37 36 30 27 28 29 28 24 20 18 19 27 32 34 33 34 34 34 34 33 34 35 34 33 31 31 31 30 32 33 33
62 61 58 51 48 46 42 40 39 36 33 26 31 31 30 27 24 24 25 25 29 34 36 38 40 40 39 36 36 37 36 36 34 34 32 32 35 35
65 65 59 55 51 47 47 47 44 42 38 36 31 32 32 34 32 30 30 30 33 37 40 42 40 40 43 43 40 40 38 38 38 35 32 33 33 35
67 66 54 57 55 56 56 53 49 48 42 42 39 37 36 36 37 38 41 40 39 41 43 43 43 44 43 45 47 44 43 39 39 38 35 33 32 36
67 62 59 52 50 65 61 52 52 50 45 47 44 39 39 40 40 42 45 47 45 42 44 48 50 46 45 49 47 48 45 42 40 38 38 37 34 34
67 62 55 55 53 51 62 55 54 48 44 45 41 40 40 41 43 44 46 46 48 48 46 48 52 53 50 48 49 51 48 46 43 40 38 40 38 33
72 64 61 58 55 61 57 51 45 47 45 47 41 43 43 46 49 47 48 48 48 49 49 48 48 49 49 48 52 53 49 48 46 44 39 40 38 34
73 74 62 67 65 66 46 39 39 44 45 41 42 43 46 51 52 55 52 52 51 50 50 52 54 53 51 50 47 50 50 47 47 46 42 41 39 37
49 64 70 56 53 46 42 42 45 49 49 45 46 48 51 52 54 57 52 53 52 51 49 49 51 51 51 53 50 49 50 53 49 51 44 41 42 39
31 30 39 43 39 37 39 42 48 53 53 52 50 51 51 52 53 54 50 47 44 44 42 46 46 49 51 49 48 50 48 51 52 45 46 44 43 42
38 36 43 40 48 48 48 49 49 48 49 46 47 48 47 47 49 46 43 38 38 37 43 47 47 49 51 50 49 48 50 48 46 56 53 47 45 43
36 36 40 43 47 46 49 50 51 51 49 49 51 51 51 49 50 47 45 43 41 40 41 45 47 48 51 49 51 54 46 49 53 52 56 53 51 47
31 34 40 40 46 43 45 47 48 50 51 50 53 52 51 51 51 51 50 47 45 42 44 47 48 49 49 47 53 56 46 53 48 49 49 55 51 47
35 37 39 41 45 48 49 48 51 53 53 53 54 55 56 57 57 57 57 56 52 48 45 46 46 45 47 50 52 50 52 47 48 47 50 58 50 47
43 46 47 46 47 50 51 53 55 57 58 59 60 60 62 63 63 64 61 59 59 57 54 50 48 47 46 50 52 54 53 49 52 47 48 50 53 53
52 53 54 54 55 56 58 59 61 63 65 65 67 67 66 66 66 65 63 63 61 59 56 55 55 56 56 51 53 56 57 53 47 56 48 54 57 46
61 63 63 64 65 66 66 67 68 67 68 71 72 73 73 71 70 69 68 67 66 65 62 62 61 61 59 58 55 58 52 49 53 51 52 52 57 44
63 65 67 70 72 73 73 74 75 75 75 76 75 75 75 74 74 74 73 72 71 68 69 69 69 67 64 63 64 59 61 56 52 58 59 56 62 55
70 70 69 67 66 68 71 73 74 77 79 81 80 80 79 80 80 79 79 79 77 76 76 76 75 74 75 68 66 64 64 64 56 60 58 60 56 57
61 65 67 68 67 66 65 64 64 66 68 69 72 77 80 83 84 85 84 82 83 85 84 84 83 80 82 80 76 72 69 68 61 63 58 62 67 62
49 52 57 63 64 63 63 61 61 60 59 58 59 60 59 59 63 63 68 75 80 85 87 91 91 91 91 87 85 79 75 69 65 66 64 65 63 68

GFSNE_500_spd_147.txt.gz
Wind_Speed
71 67 61 57 53 51 46 46 41 41 35 33 32 32 28 24 25 24 25 26 24 32 33 33 32 30 28 29 27 29 28 26 23 23 24 25 26 28
76 64 66 60 55 54 50 49 43 42 39 33 34 35 29 27 26 27 26 29 29 28 31 33 34 32 30 30 30 30 31 31 30 28 26 27 27 30
62 67 65 63 60 56 55 53 47 45 43 38 36 39 34 30 29 28 23 22 23 24 27 31 32 34 33 33 32 33 33 34 33 32 32 29 30 30
74 73 62 70 64 59 58 56 48 47 49 43 40 40 39 34 34 31 28 26 24 22 24 29 33 35 36 39 39 40 39 36 37 36 34 34 33 32
85 62 79 69 66 64 65 57 51 48 47 45 41 41 43 38 35 35 33 32 29 29 31 32 34 37 39 42 43 42 40 42 41 40 37 36 35 33
77 83 65 72 63 69 64 57 53 50 51 49 47 44 45 42 37 36 33 36 36 36 37 38 40 41 43 43 44 42 44 45 46 44 42 40 38 37
71 73 81 60 70 66 63 58 51 54 53 51 53 51 47 45 41 42 43 43 44 43 43 41 43 47 44 46 46 45 47 48 47 48 50 45 41 40
69 74 69 65 74 75 74 56 55 54 59 60 59 56 52 52 50 47 51 49 47 48 46 45 47 47 48 45 43 43 42 44 50 51 49 49 48 41
63 62 66 74 75 77 73 67 60 60 67 64 64 66 60 58 52 50 52 49 49 50 49 48 47 46 46 47 46 44 43 45 46 47 49 49 51 48
62 75 55 56 70 77 77 71 64 68 65 59 58 64 63 57 52 50 49 49 48 50 47 47 48 51 48 47 49 50 49 49 50 49 49 48 50 55
47 41 60 71 65 66 70 73 72 64 63 68 72 67 70 66 57 57 55 55 52 52 52 50 49 49 49 46 46 47 48 46 48 50 48 48 50 48
45 42 50 68 85 78 73 79 69 69 73 64 69 71 60 52 57 56 52 54 54 54 49 50 50 50 48 44 46 44 43 44 45 48 50 49 49 48
50 54 59 49 52 55 67 68 60 56 53 56 58 56 49 52 55 56 59 59 57 56 52 52 48 46 44 41 42 43 44 44 44 45 49 51 55 49
37 33 46 41 41 44 47 52 51 47 47 50 50 50 51 53 56 57 57 57 56 56 53 51 49 45 46 45 42 42 45 45 44 46 45 47 52 51
30 27 34 37 42 46 46 51 52 48 51 53 53 54 55 57 58 58 57 56 57 56 55 55 51 50 48 47 45 45 47 48 45 42 44 47 47 46
28 31 33 34 37 40 41 44 48 50 50 50 51 53 55 57 57 58 59 60 59 59 57 56 56 55 53 52 48 47 46 46 45 44 47 47 46 46
36 36 37 41 43 44 44 45 46 51 55 56 56 56 58 59 60 61 60 62 61 59 59 60 61 63 64 61 57 53 51 48 46 45 50 48 48 53
49 49 49 48 48 49 52 55 56 56 55 59 63 64 61 61 61 63 64 64 64 64 65 66 66 67 68 64 62 59 56 56 54 52 53 50 49 53
57 59 60 59 60 60 60 59 59 60 63 66 65 66 65 68 69 69 69 70 70 70 71 71 71 72 71 67 67 64 61 61 61 58 56 52 50 52
55 61 64 66 68 69 70 71 71 71 71 72 72 72 74 77 76 75 74 75 77 77 77 77 77 77 75 72 71 70 67 66 64 61 61 60 55 55
33 37 45 57 67 73 76 77 78 78 80 82 82 82 83 83 83 82 82 83 84 83 80 79 79 79 78 76 75 74 71 72 70 66 66 68 62 59
36 37 38 39 42 48 57 67 74 78 79 80 81 84 85 87 88 89 90 90 89 87 87 85 84 83 81 79 78 76 75 77 76 74 72 73 72 65
44 43 44 44 45 46 47 49 54 62 69 74 75 75 76 77 79 80 80 81 80 80 83 84 86 87 86 85 85 84 83 84 84 82 82 79 76 73

GFSNE_500_spd_150.txt.gz
Wind_Speed
78 78 64 69 63 55 61 59 55 53 50 45 43 40 41 36 33 34 33 33 33 33 30 30 35 35 34 29 27 25 26 25 27 26 25 23 24 24
74 79 74 70 64 63 59 66 59 57 53 49 46 45 48 39 36 36 34 34 29 28 30 27 30 36 35 35 31 31 29 27 28 29 30 30 30 29
65 74 72 77 74 70 61 72 64 59 58 52 52 45 47 41 39 39 34 35 30 31 32 32 28 32 33 37 37 36 32 30 30 32 31 33 32 33
65 68 74 72 76 69 69 74 69 63 61 56 53 50 49 44 42 40 39 35 34 31 27 29 32 33 34 35 36 38 35 34 36 34 33 32 33 34
69 65 67 72 75 69 67 59 70 67 63 61 56 53 53 49 45 45 43 39 39 39 35 32 32 36 37 35 36 37 38 37 37 38 38 39 41 38
69 66 61 63 70 71 67 63 69 72 64 63 59 55 55 53 50 49 45 41 43 43 41 38 36 37 36 36 38 39 38 37 39 39 40 39 39 40
58 64 58 60 68 68 67 64 60 70 69 59 61 58 58 58 55 52 51 46 44 45 45 42 42 43 42 43 42 41 42 42 42 42 41 43 43 44
49 59 58 54 58 62 64 65 59 61 69 61 62 61 60 57 57 57 56 53 50 48 48 46 47 49 46 46 47 46 44 44 42 43 41 42 44 43
43 51 60 56 51 50 58 62 64 62 62 70 64 64 60 61 59 60 59 57 57 57 52 51 52 53 51 50 49 48 47 46 43 42 41 44 45 45
33 43 50 55 54 46 52 62 68 65 76 57 67 65 61 63 62 61 60 65 64 63 57 52 54 56 55 52 50 50 50 50 46 45 47 46 47 46
22 25 34 44 49 44 46 45 57 62 71 69 72 71 69 66 62 62 69 67 66 66 62 58 56 54 53 53 52 51 52 49 47 46 44 44 43 44
29 35 29 30 43 40 43 50 59 55 61 76 63 71 67 69 69 69 69 71 70 62 63 61 57 58 56 50 50 52 50 48 46 44 45 43 44 45
33 32 40 40 39 39 38 44 47 56 57 54 64 81 89 80 72 69 69 76 73 70 72 65 62 61 57 55 50 51 52 50 46 44 45 42 43 43
8 19 31 38 40 38 38 47 50 49 52 64 65 72 73 74 73 76 76 73 73 75 72 67 60 59 59 59 58 51 51 51 48 47 43 44 46 46
25 22 19 16 14 22 37 47 50 51 54 67 71 68 71 71 68 69 70 66 68 63 59 58 57 62 60 58 57 53 55 52 51 49 47 47 47 47
25 23 23 26 26 25 29 28 29 35 47 58 48 55 63 61 59 58 60 56 58 54 53 57 61 63 63 61 60 59 56 56 54 51 51 50 49 46
34 31 31 31 33 34 35 36 34 35 41 47 49 49 55 54 53 57 57 57 58 58 58 61 64 65 67 67 64 63 60 59 60 58 55 53 51 51
40 43 43 43 46 46 45 44 44 47 48 49 49 51 52 54 57 61 62 65 66 67 68 68 69 70 70 69 67 65 64 64 63 63 64 63 61 57
29 32 43 53 56 57 57 56 56 56 56 56 58 59 60 61 61 64 66 68 70 69 70 71 71 73 74 72 70 70 70 69 69 68 66 66 64 62
30 33 35 37 39 46 58 64 67 67 67 67 67 68 68 69 71 71 72 76 77 77 78 78 77 76 78 78 77 76 76 76 76 72 70 71 70 68
39 38 39 40 42 43 46 46 49 59 70 76 77 79 79 79 79 79 79 81 82 83 85 87 87 87 85 84 83 82 81 80 77 77 76 74 73 73
42 41 43 46 47 47 49 52 52 53 55 57 63 76 84 88 89 90 89 88 88 88 89 90 91 91 91 91 89 87 86 84 81 81 80 79 77 73
51 50 47 47 49 54 56 56 57 58 59 61 61 62 64 67 80 90 92 95 95 94 95 95 95 93 91 90 91 90 89 88 88 86 84 84 82 79